#timestamp,LO_Frequency,Hit,StdDev 
1634709615.1,286046999.8,N
1634709616.0,286046999.8,N
1634709635.8,286047002.8,N
1634709655.7,286046999.9,N
1634709675.5,286046996.5,N
1634709695.3,286046999.6,N
1634709715.2,286047001.1,N
1634709735.0,286046998.2,N
1634709735.9,286046998.2,N
1634709755.8,286046998.1,N
1634709775.6,286046998.5,N
1634709795.4,286046998.9,N
1634709815.3,286046999.3,N
1634709835.1,286047001.0,N
1634709855.8,286047000.1,N
1634709875.7,286046999.7,N
1634709895.5,286047001.0,N
1634709915.4,286047000.2,N
1634709935.2,286047002.6,N
1634709955.0,286047002.0,N
1634709955.9,286047002.0,N
1634709975.8,286047000.0,N
1634709995.6,286047001.8,N
1634710015.5,286047004.2,N
1634710035.3,286047001.6,N
1634710055.1,286047000.7,N
1634710075.9,286047001.1,N
1634710095.7,286047002.0,N
1634710115.5,286047002.0,N
1634710135.4,286047004.4,N
1634710155.2,286047002.0,N
1634710175.1,286047001.3,N
1634710176.0,286047001.3,N
1634710195.8,286047001.8,N
1634710215.6,286047004.0,N
1634710235.5,286047003.4,N
1634710255.3,286047004.3,N
1634710275.2,286047002.1,N
1634710295.9,286047000.2,N
1634710315.7,286047004.2,N
1634710335.6,286047001.7,N
1634710355.4,286047004.2,N
1634710375.2,286047003.6,N
1634710395.1,286047005.5,Y
1634710396.0,286047005.5,P
1634710415.8,286047003.4,N
1634710435.7,286047005.3,P
1634710455.5,286047005.8,Y
1634710475.3,286047001.8,P
1634710495.2,286047004.2,P
1634710515.0,286047002.7,N
1634710515.9,286047002.7,N
1634710535.8,286047002.6,N
1634710555.6,286047001.8,N
1634710575.4,286047000.1,N
1634710595.3,286046999.4,N
1634710615.1,286046998.4,N
1634710635.8,286047000.8,N
1634710655.7,286047001.0,N
1634710675.5,286047000.7,N
1634710695.4,286047001.2,N
1634710715.2,286047000.4,N
1634710735.0,286047000.7,N
1634710735.9,286047000.7,N
1634710755.8,286047001.1,N
1634710775.6,286046999.4,N
1634710795.4,286046998.4,N
1634710815.3,286047001.0,N
1634710835.1,286046999.8,N
1634710855.9,286046998.2,N
1634710875.7,286046999.1,N
1634710895.5,286046997.0,N
1634710915.4,286046996.6,N
1634710935.2,286046995.5,N
1634710955.0,286046994.9,N
1634710955.9,286046994.9,N
1634710975.8,286046996.7,N
1634710995.6,286046997.3,N
1634711015.5,286046997.3,N
1634711035.3,286047001.2,N
1634711055.1,286046998.1,N
1634711075.9,286046998.3,N
1634711095.7,286046997.1,N
1634711115.5,286046996.7,N
1634711135.4,286046998.7,N
1634711155.2,286047000.5,N
1634711175.1,286046999.8,N
1634711176.0,286046999.8,N
1634711195.8,286047004.4,N
1634711215.6,286047001.3,N
1634711235.5,286047000.3,N
1634711255.3,286047000.4,N
1634711275.2,286047001.1,N
1634711295.9,286046999.7,N
1634711315.7,286047000.7,N
1634711335.6,286047001.1,N
1634711355.4,286046998.2,N
1634711375.2,286047000.6,N
1634711395.1,286046998.8,N
1634711396.0,286046998.8,N
1634711415.8,286046999.0,N
1634711435.7,286046999.5,N
1634711455.5,286046997.9,N
1634711475.3,286046996.2,N
1634711495.2,286046994.8,N
1634711515.0,286046995.8,N
1634711515.9,286046995.8,N
1634711535.8,286046992.0,Y
1634711555.6,286046996.2,P
1634711575.4,286046995.5,P
1634711595.3,286046997.3,N
1634711615.1,286046994.9,Y
1634711635.8,286047001.1,P
1634711655.7,286047000.9,N
1634711675.5,286047000.1,N
1634711695.4,286047002.1,N
1634711715.2,286047000.6,N
1634711735.0,286047000.2,N
1634711735.9,286047000.2,N
1634711755.8,286047000.3,N
1634711775.6,286047002.1,N
1634711795.5,286047003.1,N
1634711815.3,286047005.6,Y
1634711835.1,286047001.7,P
1634711855.9,286047001.9,P
1634711875.7,286047001.9,P
1634711895.5,286047002.2,Y
1634711915.4,286047002.7,P
1634711935.2,286047002.3,P
1634711955.1,286046999.7,N
1634711956.0,286046999.7,N
1634711975.8,286046998.4,N
1634711995.6,286046999.1,N
1634712015.5,286046998.3,N
1634712035.3,286046997.2,N
1634712055.1,286046997.0,N
1634712075.9,286046996.7,N
1634712095.7,286046996.6,N
1634712115.6,286046996.7,N
1634712135.4,286046996.1,N
1634712155.2,286046995.7,N
1634712175.1,286046993.8,N
1634712176.0,286046993.8,N
1634712195.8,286046994.0,N
1634712215.7,286046995.0,N
1634712235.5,286046997.4,N
1634712255.3,286046996.7,N
1634712275.2,286046997.4,N
1634712295.0,286046995.8,N
1634712295.9,286046995.8,N
1634712315.7,286046993.6,N
1634712335.6,286046994.8,N
1634712355.4,286046991.8,Y
1634712375.3,286046997.5,P
1634712395.1,286046997.6,P
1634712415.8,286046996.5,P
1634712435.7,286046995.2,Y
1634712455.5,286046998.2,P
1634712475.4,286046999.7,N
1634712495.2,286047001.5,N
1634712515.0,286047003.9,N
1634712515.9,286047003.9,N
1634712535.8,286047001.4,N
1634712555.6,286047003.8,N
1634712575.4,286047003.5,N
1634712595.3,286047004.1,N
1634712615.1,286047003.9,N
1634712635.9,286047004.3,N
1634712655.7,286047003.9,N
1634712675.5,286047002.9,N
1634712695.4,286047002.9,N
1634712715.2,286047005.5,N
1634712735.1,286047005.3,N
1634712736.0,286047005.3,N
1634712755.8,286047004.3,N
1634712775.6,286047000.6,N
1634712795.5,286047002.2,N
1634712815.3,286047000.9,N
1634712835.1,286047001.3,N
1634712855.9,286047003.7,N
1634712875.7,286047002.6,N
1634712895.6,286047002.5,N
1634712915.4,286046999.9,N
1634712935.2,286047001.1,N
1634712955.1,286047002.4,N
1634712956.0,286047002.4,N
1634712975.8,286047002.3,N
1634712995.6,286047001.6,N
1634713015.5,286047001.8,N
1634713035.3,286047004.2,N
1634713055.2,286047003.1,N
1634713075.9,286047006.0,Y
1634713095.7,286047000.9,P
1634713115.6,286046999.3,N
1634713135.4,286046998.6,N
1634713155.3,286046998.1,N
1634713175.1,286047000.8,N
1634713176.0,286047000.8,N
1634713195.8,286046998.7,N
